TimeMDT,TemperatureF,Dew PointF,Humidity,Sea Level PressureIn,VisibilityMPH,Wind Direction,Wind SpeedMPH,Gust SpeedMPH,PrecipitationIn,Events,Conditions,WindDirDegrees,DateUTC
12:51 AM,52.0,10.0,19,29.65,10.0,SSW,3.5,-,N/A,,Clear,200,2014-03-11 06:51:00
1:51 AM,51.1,6.1,16,29.62,10.0,SSE,4.6,-,N/A,,Clear,160,2014-03-11 07:51:00
2:51 AM,52.0,10.9,19,29.60,10.0,SW,5.8,-,N/A,,Clear,230,2014-03-11 08:51:00
3:51 AM,39.9,14.0,35,29.62,10.0,North,5.8,-,N/A,,Clear,10,2014-03-11 09:51:00
4:51 AM,41.0,12.0,31,29.63,10.0,NNW,6.9,-,N/A,,Clear,340,2014-03-11 10:51:00
5:51 AM,43.0,14.0,31,29.62,10.0,Variable,3.5,-,N/A,,Clear,0,2014-03-11 11:51:00
6:51 AM,39.0,10.9,32,29.66,10.0,Variable,3.5,-,N/A,,Clear,0,2014-03-11 12:51:00
7:51 AM,39.0,10.0,30,29.70,10.0,Variable,3.5,-,N/A,,Clear,0,2014-03-11 13:51:00
8:51 AM,59.0,12.0,16,29.68,10.0,NNW,10.4,-,N/A,,Clear,330,2014-03-11 14:51:00
9:51 AM,70.0,9.0,9,29.68,10.0,West,16.1,-,N/A,,Clear,280,2014-03-11 15:51:00
10:51 AM,73.0,9.0,8,29.67,10.0,NW,12.7,-,N/A,,Clear,310,2014-03-11 16:51:00
11:12 AM,73.0,10.9,9,29.79,10.0,North,16.1,29.9,N/A,,Clear,350,2014-03-11 17:12:00
11:34 AM,75.0,9.0,8,29.79,10.0,West,18.4,32.2,N/A,,Partly Cloudy,260,2014-03-11 17:34:00
11:51 AM,75.9,10.0,8,29.65,10.0,NW,11.5,-,N/A,,Clear,320,2014-03-11 17:51:00
12:00 PM,75.0,10.9,9,29.79,10.0,NNW,24.2,33.4,N/A,,Clear,330,2014-03-11 18:00:00
12:51 PM,78.1,8.1,7,29.63,10.0,NW,16.1,24.2,N/A,,Clear,310,2014-03-11 18:51:00
1:34 PM,79.0,7.0,6,29.77,10.0,West,12.7,-,N/A,,Clear,260,2014-03-11 19:34:00
1:51 PM,79.0,5.0,6,29.61,10.0,NW,19.6,26.5,N/A,,Clear,320,2014-03-11 19:51:00
2:51 PM,79.0,6.1,6,29.59,10.0,NW,24.2,32.2,N/A,,Clear,310,2014-03-11 20:51:00
3:51 PM,80.1,5.0,6,29.62,10.0,NW,20.7,31.1,N/A,,Clear,320,2014-03-11 21:51:00
4:51 PM,79.0,5.0,6,29.62,10.0,NNW,24.2,29.9,N/A,,Clear,330,2014-03-11 22:51:00
5:51 PM,77.0,5.0,6,29.65,10.0,NW,18.4,27.6,N/A,,Clear,320,2014-03-11 23:51:00
6:51 PM,73.9,5.0,7,29.70,10.0,NNW,15.0,-,N/A,,Clear,340,2014-03-12 00:51:00
7:51 PM,66.0,6.1,9,29.76,10.0,North,10.4,-,N/A,,Clear,360,2014-03-12 01:51:00
8:51 PM,61.0,27.0,27,29.80,3.0,NNE,32.2,44.9,N/A,,Haze,30,2014-03-12 02:51:00
8:59 PM,59.0,28.0,31,29.95,2.0,NNE,29.9,41.4,N/A,,Haze,30,2014-03-12 02:59:00
9:38 PM,54.0,27.0,35,30.01,3.0,NE,29.9,40.3,N/A,,Haze,40,2014-03-12 03:38:00
9:51 PM,53.1,27.0,37,29.92,2.5,NE,28.8,47.2,N/A,,Haze,40,2014-03-12 03:51:00
9:59 PM,52.0,27.0,38,30.07,3.0,NNE,35.7,43.7,N/A,,Haze,30,2014-03-12 03:59:00
10:51 PM,48.9,28.0,44,30.01,5.0,NNE,28.8,39.1,N/A,,Haze,30,2014-03-12 04:51:00
11:51 PM,45.0,26.1,48,30.09,6.0,North,24.2,35.7,N/A,,Haze,10,2014-03-12 05:51:00